Mitchell, SD

6:55 AM CST on November 17, 2019 (GMT -0600)
Mitchell Municipal

Weather History for KMHE - September, 2019

Change the Weather History Date:

Sunday, September 1, 2019

  Actual Average Record
Temperature  
Mean Temperature 71 °F 69 °F  
Max Temperature 81 °F 81 °F 100 °F (1913)
Min Temperature 60 °F 57 °F 39 °F (1946)
Degree Days  
Heating Degree Days 0 1  
Month to date heating degree days 0 1  
Since 1 July heating degree days 9 18  
Cooling Degree Days 6 5  
Month to date cooling degree days 6 5  
Year to date cooling degree days 800 750  
Growing Degree Days 20 (Base 50)    
Moisture  
Dew Point 63 °F    
Average Humidity 76    
Maximum Humidity 90    
Minimum Humidity 62    
Precipitation  
Precipitation 0.00 in 0.11 in 1.43 in (2006)
Month to date precipitation 0.00 0.11  
Year to date precipitation 25.04 16.46  
Snow  
Snow 0.00 in - 0.00 in ()
Month to date snowfall 0.0  
Since 1 July snowfall 0.0  
Since 1 September snowfall 0.0  
Snow Depth 0.00 in    
Sea Level Pressure  
Sea Level Pressure 30.04 in    
Wind  
Wind Speed 6 mph (SSE)    
Max Wind Speed 10 mph    
Max Gust Speed 15 mph    
Visibility 10 miles    
Events      
T = Trace of Precipitation, MM = Missing Value Source: NWS Daily Summary

Daily Weather History Graph

Daily Weather History Graph

Search for Another Location

Airport or City:

Astronomy

Sep. 01, 2019 Rise Set
Actual Time 6:55 AM CDT 8:08 PM CDT
Civil Twilight 6:25 AM CDT 8:37 PM CDT
Nautical Twilight 5:50 AM CDT 9:13 PM CDT
Astronomical Twilight 5:12 AM CDT 9:50 PM CDT
Moon 9:31 AM CDT (9/1) 9:51 PM CDT (9/1)
Length of Visible Light 14h 11m
Length of Day
13h 12m
Waxing Crescent, 8% of the Moon is Illuminated
Sep 1
Waxing Crescent
Sep 5
First Quarter
Sep 13
Full
Sep 21
Last Quarter
Sep 28
New

Hourly Weather History & Observations

Time (CDT) Temp. Heat Index Dew Point Humidity Pressure Visibility Wind Dir Wind Speed Gust Speed Precip Events Conditions
12:53 AM 61.0 °F - 55.9 °F 83% 30.11 in 10.0 mi SE 8.1 mph - N/A   Scattered Clouds
1:53 AM 60.1 °F - 55.9 °F 86% 30.10 in 10.0 mi SE 8.1 mph - N/A   Scattered Clouds
2:53 AM 60.1 °F - 57.0 °F 90% 30.09 in 10.0 mi SE 6.9 mph - N/A   Mostly Cloudy
3:53 AM 61.0 °F - 57.9 °F 90% 30.08 in 10.0 mi SSE 6.9 mph - N/A   Mostly Cloudy
4:53 AM 63.0 °F - 59.0 °F 87% 30.06 in 10.0 mi South 9.2 mph - N/A   Overcast
5:53 AM 64.0 °F - 59.0 °F 84% 30.05 in 10.0 mi South 9.2 mph - N/A   Overcast
6:37 AM 63.0 °F - 59.0 °F 87% 30.06 in 10.0 mi SSE 8.1 mph - N/A   Mostly Cloudy
6:53 AM 63.0 °F - 59.0 °F 87% 30.05 in 10.0 mi SSE 6.9 mph - N/A   Overcast
7:53 AM 64.0 °F - 59.0 °F 84% 30.05 in 10.0 mi South 6.9 mph - N/A   Overcast
8:53 AM 64.9 °F - 60.1 °F 84% 30.06 in 10.0 mi South 9.2 mph - N/A   Overcast
9:53 AM 66.9 °F - 62.1 °F 84% 30.06 in 10.0 mi SSW 8.1 mph - N/A   Overcast
10:53 AM 70.0 °F - 64.0 °F 81% 30.05 in 10.0 mi SSW 5.8 mph - N/A   Overcast
11:53 AM 72.0 °F - 64.0 °F 76% 30.04 in 10.0 mi SW 4.6 mph - N/A   Overcast
12:04 PM 72.0 °F - 64.0 °F 76% 30.05 in 10.0 mi SW 3.5 mph - N/A   Overcast
12:42 PM 73.0 °F - 64.9 °F 76% 30.05 in 10.0 mi SSW 4.6 mph - N/A   Overcast
12:53 PM 73.0 °F - 64.9 °F 76% 30.04 in 10.0 mi South 3.5 mph - N/A   Overcast
1:53 PM 77.0 °F - 64.9 °F 66% 30.02 in 10.0 mi South 5.8 mph - N/A   Mostly Cloudy
2:16 PM 75.9 °F - 64.9 °F 69% 30.04 in 10.0 mi Variable 5.8 mph - N/A   Scattered Clouds
2:53 PM 78.1 °F - 66.0 °F 66% 30.02 in 10.0 mi ESE 4.6 mph - N/A   Scattered Clouds
3:53 PM 80.1 °F 82.3 °F 66.9 °F 64% 30.01 in 10.0 mi East 6.9 mph - N/A   Clear
4:53 PM 80.1 °F 82.3 °F 66.9 °F 64% 29.99 in 10.0 mi Variable 3.5 mph - N/A   Partly Cloudy
5:53 PM 80.1 °F 82.3 °F 66.9 °F 64% 29.99 in 10.0 mi SE 6.9 mph - N/A   Clear
6:53 PM 77.0 °F - 66.9 °F 71% 30.00 in 10.0 mi SE 5.8 mph - N/A   Clear
7:53 PM 73.0 °F - 66.9 °F 81% 30.00 in 10.0 mi SE 5.8 mph - N/A   Clear
8:53 PM 71.1 °F - 66.9 °F 87% 30.02 in 10.0 mi East 5.8 mph - N/A   Mostly Cloudy
9:53 PM 69.1 °F - 66.0 °F 90% 30.04 in 10.0 mi East 4.6 mph - N/A   Partly Cloudy
10:53 PM 69.1 °F - 66.0 °F 90% 30.04 in 10.0 mi ESE 3.5 mph - N/A   Mostly Cloudy
11:53 PM 69.1 °F - 66.0 °F 90% 30.04 in 10.0 mi SE 4.6 mph - N/A   Overcast